RYR84KA LEAM-EBCI

Flight info

Callsign RYR84KA
Flight time N/A
Altitude 38000
Route ESILA N865 VTB DCT RBO DCT OSTIX DCT GASMO DCT DGO N858 ABRIX DCT CNA DCT ADABI/N0429F340 DCT BOKNO UN858 VANAD UN874 BAMES UT191 PODEM UN873 BAZOS DCT BELDI DCT VEKIN Z173 ARVOL
Aircraft B38M/M-SADE3FGILRWY/SB1

Departure

Time 2026-04-20 17:45
Airport Almería Airport (LEAM)

Arrival

Time N/A
Airport Brussels South Charleroi Airport (EBCI)
Time Latitude Longitude Altitude Speed Heading
2026-04-20 16:50 36.84672 -2.37168 47 ft 0 kts 222°
2026-04-20 17:40 36.84670 -2.37170 47 ft 2 kts 221°
2026-04-20 17:40 36.84631 -2.37177 46 ft 11 kts 163°
2026-04-20 17:40 36.84613 -2.37109 47 ft 8 kts 60°
2026-04-20 17:41 36.84638 -2.37034 48 ft 11 kts 70°
2026-04-20 17:41 36.84642 -2.36944 49 ft 10 kts 121°
2026-04-20 17:41 36.84608 -2.36871 50 ft 4 kts 101°
2026-04-20 17:41 36.84612 -2.36838 46 ft 5 kts 74°
2026-04-20 17:42 36.84630 -2.36763 48 ft 14 kts 73°
2026-04-20 17:42 36.84666 -2.36616 53 ft 20 kts 73°
2026-04-20 17:42 36.84708 -2.36448 54 ft 21 kts 73°
2026-04-20 17:42 36.84748 -2.36275 56 ft 21 kts 72°
2026-04-20 17:43 36.84794 -2.36100 59 ft 22 kts 73°
2026-04-20 17:43 36.84838 -2.35919 61 ft 22 kts 73°
2026-04-20 17:43 36.84883 -2.35734 63 ft 22 kts 72°
2026-04-20 17:43 36.84929 -2.35546 61 ft 23 kts 73°
2026-04-20 17:44 36.84939 -2.35381 65 ft 17 kts 117°
2026-04-20 17:44 36.84841 -2.35322 69 ft 16 kts 192°
2026-04-20 17:44 36.84759 -2.35533 63 ft 57 kts 253°
2026-04-20 17:44 36.84575 -2.36282 52 ft 121 kts 252°
2026-04-20 17:45 36.84276 -2.37483 171 ft 157 kts 252°
2026-04-20 17:45 36.83972 -2.38844 700 ft 167 kts 253°
2026-04-20 17:45 36.83633 -2.40236 1320 ft 175 kts 252°
2026-04-20 17:45 36.83249 -2.41754 1832 ft 187 kts 252°
2026-04-20 17:46 36.82844 -2.43366 2327 ft 205 kts 252°
2026-04-20 17:46 36.82395 -2.45160 2720 ft 227 kts 252°
2026-04-20 17:46 36.81915 -2.47084 3179 ft 243 kts 252°
2026-04-20 17:46 36.81407 -2.49122 3881 ft 246 kts 252°
2026-04-20 17:47 36.80901 -2.51165 4667 ft 247 kts 253°
2026-04-20 17:47 36.80395 -2.53223 5389 ft 249 kts 252°
2026-04-20 17:47 36.79885 -2.55293 6069 ft 252 kts 252°
2026-04-20 17:47 36.79366 -2.57396 6701 ft 255 kts 253°
2026-04-20 17:48 36.78844 -2.59513 7339 ft 256 kts 253°
2026-04-20 17:48 36.78315 -2.61652 7949 ft 259 kts 253°
2026-04-20 17:48 36.78067 -2.63864 8572 ft 259 kts 277°
2026-04-20 17:48 36.78640 -2.65946 9170 ft 261 kts 303°
2026-04-20 17:49 36.79938 -2.67522 9779 ft 264 kts 329°
2026-04-20 17:49 36.81649 -2.68383 10305 ft 268 kts 341°
2026-04-20 17:49 36.83441 -2.69101 10816 ft 272 kts 341°
2026-04-20 17:49 36.85256 -2.69817 11356 ft 275 kts 341°
2026-04-20 17:50 36.87094 -2.70531 11910 ft 278 kts 341°
2026-04-20 17:50 36.88968 -2.71251 12274 ft 289 kts 341°
2026-04-20 17:50 36.90952 -2.72008 12376 ft 307 kts 341°
2026-04-20 17:50 36.93057 -2.72811 12451 ft 325 kts 341°
2026-04-20 17:51 36.95228 -2.73636 12618 ft 336 kts 341°
2026-04-20 17:51 36.97462 -2.74487 13095 ft 336 kts 341°
2026-04-20 17:51 36.99705 -2.75342 13501 ft 338 kts 341°
2026-04-20 17:51 37.01961 -2.76201 13908 ft 340 kts 341°
2026-04-20 17:52 37.04113 -2.77395 14217 ft 339 kts 322°
2026-04-20 17:52 37.05760 -2.79463 14500 ft 336 kts 302°
2026-04-20 17:52 37.06889 -2.82025 14752 ft 338 kts 296°
2026-04-20 17:52 37.07971 -2.84639 15304 ft 338 kts 295°
2026-04-20 17:53 37.09027 -2.87230 15927 ft 340 kts 295°
2026-04-20 17:53 37.10098 -2.89894 16473 ft 344 kts 295°
2026-04-20 17:53 37.11171 -2.92583 17063 ft 346 kts 295°
2026-04-20 17:53 37.12246 -2.95291 17608 ft 349 kts 295°
2026-04-20 17:54 37.13330 -2.98024 18138 ft 351 kts 294°
2026-04-20 17:54 37.14420 -3.00775 18594 ft 354 kts 295°
2026-04-20 17:54 37.15517 -3.03550 19001 ft 356 kts 295°
2026-04-20 17:54 37.16619 -3.06338 19437 ft 358 kts 295°
2026-04-20 17:55 37.17726 -3.09142 19885 ft 359 kts 295°
2026-04-20 17:55 37.18822 -3.11919 20301 ft 361 kts 295°
2026-04-20 17:55 37.19938 -3.14751 20697 ft 363 kts 295°
2026-04-20 17:55 37.21059 -3.17598 21106 ft 365 kts 295°
2026-04-20 17:56 37.22185 -3.20460 21492 ft 367 kts 295°
2026-04-20 17:56 37.23315 -3.23336 21882 ft 369 kts 295°
2026-04-20 17:56 37.24452 -3.26230 22233 ft 371 kts 295°
2026-04-20 17:56 37.25616 -3.29135 22588 ft 373 kts 295°
2026-04-20 17:57 37.26791 -3.32048 22932 ft 375 kts 295°
2026-04-20 17:57 37.27969 -3.34975 23289 ft 377 kts 295°
2026-04-20 17:57 37.29136 -3.37879 23579 ft 378 kts 295°
2026-04-20 17:57 37.30324 -3.40839 23858 ft 380 kts 295°
2026-04-20 17:58 37.31516 -3.43810 24121 ft 382 kts 295°
2026-04-20 17:58 37.32714 -3.46802 24338 ft 385 kts 295°
2026-04-20 17:58 37.33922 -3.49820 24575 ft 387 kts 294°
2026-04-20 17:58 37.35134 -3.52850 24823 ft 389 kts 294°
2026-04-20 17:59 37.36350 -3.55894 25056 ft 390 kts 294°
2026-04-20 17:59 37.37790 -3.58799 25268 ft 396 kts 308°
2026-04-20 17:59 37.39796 -3.61200 24539 ft 409 kts 323°
2026-04-20 17:59 37.42385 -3.62623 24196 ft 417 kts 346°
2026-04-20 18:00 37.45263 -3.62906 24812 ft 413 kts 357°
2026-04-20 18:00 37.48107 -3.62946 25552 ft 407 kts 357°
2026-04-20 18:00 37.50956 -3.62962 25924 ft 412 kts 358°
2026-04-20 18:00 37.53837 -3.62957 26320 ft 415 kts 358°
2026-04-20 18:01 37.56729 -3.62944 26725 ft 418 kts 358°
2026-04-20 18:01 37.59649 -3.62926 27108 ft 421 kts 358°
2026-04-20 18:01 37.62584 -3.62906 27485 ft 423 kts 358°
2026-04-20 18:01 37.65541 -3.62884 27870 ft 426 kts 358°
2026-04-20 18:02 37.68473 -3.62860 28229 ft 429 kts 358°
2026-04-20 18:02 37.71462 -3.62836 28615 ft 431 kts 358°
2026-04-20 18:02 37.74476 -3.62811 28959 ft 435 kts 358°
2026-04-20 18:02 37.77508 -3.62786 29322 ft 437 kts 358°
2026-04-20 18:03 37.80556 -3.62761 29671 ft 440 kts 358°
2026-04-20 18:03 37.83625 -3.62736 30006 ft 442 kts 358°
2026-04-20 18:03 37.86713 -3.62710 30295 ft 445 kts 358°
2026-04-20 18:03 37.89808 -3.62684 30614 ft 446 kts 358°
2026-04-20 18:04 37.92878 -3.62659 30919 ft 448 kts 358°
2026-04-20 18:04 37.96001 -3.62633 31195 ft 450 kts 358°
2026-04-20 18:04 37.99136 -3.62607 31504 ft 451 kts 358°
2026-04-20 18:04 38.02282 -3.62581 31807 ft 453 kts 358°
2026-04-20 18:05 38.08614 -3.62528 32399 ft 456 kts 358°
2026-04-20 18:05 38.11793 -3.62501 32691 ft 458 kts 358°
2026-04-20 18:05 38.14984 -3.62444 32978 ft 460 kts
2026-04-20 18:06 38.18186 -3.62098 33261 ft 462 kts
2026-04-20 18:06 38.21354 -3.61767 33551 ft 464 kts
2026-04-20 18:06 38.24567 -3.61451 33929 ft 463 kts
2026-04-20 18:06 38.27773 -3.61144 34279 ft 461 kts
2026-04-20 18:07 38.30972 -3.60839 34603 ft 460 kts
2026-04-20 18:07 38.34162 -3.60536 34934 ft 459 kts
2026-04-20 18:07 38.37347 -3.60233 35244 ft 459 kts
2026-04-20 18:07 38.40527 -3.59931 35538 ft 458 kts
2026-04-20 18:08 38.43700 -3.59628 35830 ft 457 kts
2026-04-20 18:08 38.46828 -3.59330 36096 ft 457 kts
2026-04-20 18:08 38.49994 -3.59027 36355 ft 456 kts
2026-04-20 18:08 38.53160 -3.58725 36617 ft 456 kts
2026-04-20 18:09 38.56317 -3.58424 36877 ft 455 kts
2026-04-20 18:09 38.59474 -3.58122 37130 ft 454 kts
2026-04-20 18:09 38.62625 -3.57820 37376 ft 454 kts
2026-04-20 18:09 38.65773 -3.57518 37618 ft 453 kts
2026-04-20 18:10 38.68915 -3.57216 37833 ft 453 kts
2026-04-20 18:10 38.72017 -3.56919 37927 ft 453 kts
2026-04-20 18:10 38.78293 -3.56315 37898 ft 451 kts
2026-04-20 18:11 38.84553 -3.55712 37922 ft 451 kts
2026-04-20 18:11 38.90811 -3.55108 37897 ft 450 kts
2026-04-20 18:12 38.97065 -3.54504 37899 ft 451 kts
2026-04-20 18:12 39.03279 -3.53891 37901 ft 451 kts
2026-04-20 18:13 39.09531 -3.53270 37906 ft 451 kts
2026-04-20 18:13 39.15782 -3.52647 37904 ft 450 kts
2026-04-20 18:14 39.22034 -3.52024 37906 ft 450 kts
2026-04-20 18:14 39.28242 -3.51404 37908 ft 450 kts
2026-04-20 18:15 39.34493 -3.50778 37909 ft 451 kts
2026-04-20 18:15 39.40748 -3.50151 37909 ft 451 kts
2026-04-20 18:16 39.47000 -3.49524 37910 ft 451 kts
2026-04-20 18:16 39.53216 -3.48898 37926 ft 451 kts
2026-04-20 18:17 39.59477 -3.48270 37912 ft 451 kts
2026-04-20 18:17 39.65737 -3.47643 37914 ft 451 kts
2026-04-20 18:18 39.72002 -3.47014 37914 ft 451 kts
2026-04-20 18:18 39.78217 -3.46319 37905 ft 453 kts
2026-04-20 18:19 39.84448 -3.44989 37918 ft 454 kts
2026-04-20 18:19 39.90689 -3.43737 37916 ft 454 kts
2026-04-20 18:20 39.96928 -3.42497 37919 ft 453 kts
2026-04-20 18:20 40.03109 -3.41266 37921 ft 453 kts
2026-04-20 18:21 40.09339 -3.40023 37931 ft 453 kts
2026-04-20 18:21 40.14518 -3.38988 37927 ft 453 kts